Weather History for Huntsville, AL

Change the Weather History Date:

Wednesday, November 21, 2012

  Actual Average Record
Temperature  
Mean Temperature 57 °F 51 °F  
Max Temperature 71 °F 61 °F 78 °F (1942)
Min Temperature 42 °F 40 °F 17 °F (1937)
Degree Days  
Heating Degree Days 8 14  
Month to date heating degree days 297 232  
Since 1 July heating degree days 477 383  
Cooling Degree Days 0 0  
Month to date cooling degree days 0 7  
Year to date cooling degree days 2094 1947  
Growing Degree Days 6 (Base 50)    
Moisture  
Dew Point 44 °F    
Average Humidity 65    
Maximum Humidity 89    
Minimum Humidity 41    
Precipitation  
Precipitation 0.00 in 0.18 in 1.98 in (1977)
Month to date precipitation 1.82 3.25  
Year to date precipitation 45.28 46.88  
Snow  
Snow 0.00 in - - ()
Month to date snowfall 0.0  
Since 1 July snowfall 0.0  
Since 1 September snowfall 0.0  
Snow Depth 0.00 in    
Sea Level Pressure  
Sea Level Pressure 30.17 in    
Wind  
Wind Speed 3 mph (North)    
Max Wind Speed 9 mph    
Max Gust Speed 14 mph    
Visibility 9 miles    
Events      
T = Trace of Precipitation, MM = Missing Value Source: NWS Daily Summary

Daily Weather History Graph

Daily Weather History Graph

Search for Another Location

Airport:

Trip Planner

Search our weather history database for the weather conditions in past years. The results will help you decide how hot, cold, wet, or windy it might be!

Date:

Astronomy

Nov. 21, 2012 Rise Set
Actual Time 6:27 AM CST 4:38 PM CST
Civil Twilight 5:59 AM CST 5:06 PM CST
Nautical Twilight 5:29 AM CST 5:36 PM CST
Astronomical Twilight 4:59 AM CST 6:06 PM CST
Moon 12:41 PM CST (11/21) 12:00 AM CST (11/21)
Length of Visible Light 11h 06m
Length of Day
10h 11m
First Quarter, 62% of the Moon is Illuminated
Nov 21
First Quarter
Nov 28
Full
Dec 6
Last Quarter
Dec 13
New
Dec 19
First Quarter

Hourly Weather History & Observations

Time (CST) Temp. Windchill Dew Point Humidity Pressure Visibility Wind Dir Wind Speed Gust Speed Precip Events Conditions
12:53 AM 51.1 °F - 44.1 °F 77% 30.11 in 10.0 mi Calm Calm - N/A   Overcast
1:53 AM 50.0 °F - 44.1 °F 80% 30.12 in 10.0 mi Calm Calm - N/A   Scattered Clouds
2:53 AM 48.0 °F - 43.0 °F 83% 30.12 in 10.0 mi Calm Calm - N/A   Partly Cloudy
3:53 AM 46.0 °F - 42.1 °F 86% 30.12 in 9.0 mi Calm Calm - N/A   Clear
4:53 AM 44.1 °F - 41.0 °F 89% 30.14 in 9.0 mi Calm Calm - N/A   Clear
5:53 AM 44.1 °F 42.5 °F 41.0 °F 89% 30.15 in 4.0 mi NW 3.5 mph - N/A   Clear
6:53 AM 44.1 °F - 39.9 °F 85% 30.18 in 7.0 mi Calm Calm - N/A   Clear
7:53 AM 48.0 °F - 43.0 °F 83% 30.19 in 10.0 mi Calm Calm - N/A   Clear
8:53 AM 55.0 °F - 46.0 °F 72% 30.19 in 10.0 mi Calm Calm - N/A   Clear
9:53 AM 61.0 °F - 46.9 °F 60% 30.20 in 10.0 mi Calm Calm - N/A   Clear
10:53 AM 68.0 °F - 46.9 °F 47% 30.19 in 10.0 mi North 5.8 mph - N/A   Clear
11:53 AM 70.0 °F - 46.9 °F 44% 30.17 in 10.0 mi NNE 8.1 mph - N/A   Partly Cloudy
12:53 PM 68.0 °F - 46.0 °F 45% 30.16 in 10.0 mi North 6.9 mph - N/A   Scattered Clouds
1:53 PM 71.1 °F - 46.0 °F 41% 30.14 in 10.0 mi Variable 6.9 mph - N/A   Partly Cloudy
2:53 PM 69.1 °F - 46.0 °F 44% 30.14 in 10.0 mi North 5.8 mph - N/A   Clear
3:53 PM 68.0 °F - 46.0 °F 45% 30.16 in 10.0 mi NNW 5.8 mph - N/A   Clear
4:53 PM 62.1 °F - 45.0 °F 53% 30.17 in 10.0 mi North 4.6 mph - N/A   Clear
5:53 PM 57.9 °F - 44.1 °F 60% 30.18 in 10.0 mi North 4.6 mph - N/A   Clear
6:53 PM 55.9 °F - 44.1 °F 64% 30.19 in 10.0 mi North 4.6 mph - N/A   Clear
7:53 PM 54.0 °F - 43.0 °F 66% 30.19 in 10.0 mi NNE 5.8 mph - N/A   Clear
8:53 PM 52.0 °F - 42.1 °F 69% 30.19 in 10.0 mi Calm Calm - N/A   Clear
9:53 PM 46.0 °F - 39.9 °F 79% 30.20 in 9.0 mi Calm Calm - N/A   Clear
10:53 PM 46.0 °F - 41.0 °F 83% 30.20 in 10.0 mi Calm Calm - N/A   Clear
11:53 PM 45.0 °F 43.5 °F 41.0 °F 86% 30.19 in 10.0 mi NW 3.5 mph - N/A   Clear